Location: Quedlinburg
(51.7921°N, 11.1414°E)
Time: 14:02:41
(UTC+02:00)

RS-15 - Pass Details

Date: 20 March 2026
Orbit: 1893 x 2152 km, 64.8° (Epoch: 22 April)

Event Time Altitude Azimuth Distance (km) Brightness Sun altitude
Rises 22:04:32 0° 253° (WSW) 5,276 10.6 -30.5°
Reaches altitude 10° 22:07:55 10° 259° (WSW) 4,292 10.1 -30.9°
Maximum altitude 22:18:35 53° 335° (NNW) 2,304 8.6 -31.9°
Drops below altitude 10° 22:29:44 10° 51° (NE) 4,463 9.9 -32.9°
Sets 22:33:21 0° 56° (ENE) 5,500 10.4 -33.2°
